Simultaneous Nadir Overpasses (SNOs) Predictions

Prediction of SNOs between METOP-A and NPP Satellite Orbit:

Table of predicted SNOs for the next 14.0 days since TLE Epoch: 6/16/2017
Index Date (METOP-A) Time (METOP-A) Lat,Lon (METOP-A) SZA (METOP-A ) Date (NPP) Time (NPP) Lat,Lon (NPP) SZA (NPP ) Distance(km) Time Diff (sec)
1 06/18/2017 03:30:26 73.43, 120.24 50.10 06/18/2017 03:29:17 73.42, 118.06 50.22 69.23 69
2 06/18/2017 04:21:09 -73.35, -72.60 129.98 06/18/2017 04:19:59 -73.34, -74.44 129.87 58.40 70
3 06/18/2017 05:11:53 73.15, 94.29 49.85 06/18/2017 05:10:41 73.13, 93.34 49.89 30.78 72
4 06/18/2017 06:02:37 -73.02, -98.65 130.27 06/18/2017 06:01:23 -73.05, -99.16 130.20 16.72 74
5 06/18/2017 06:53:19 72.93, 68.47 49.65 06/18/2017 06:52:07 72.93, 68.39 49.68 2.78 72
6 06/18/2017 07:44:01 -72.90,-124.25 130.38 06/18/2017 07:42:50 -72.90,-124.23 130.36 0.95 71
7 06/18/2017 08:34:41 72.90, 43.08 49.63 06/18/2017 08:33:36 72.89, 43.11 49.63 1.80 65
8 06/18/2017 09:25:23 -72.88,-149.64 130.40 06/18/2017 09:24:20 -72.91,-149.61 130.36 3.34 63
9 06/18/2017 10:16:03 72.88, 17.69 49.61 06/18/2017 10:15:06 72.89, 17.72 49.63 1.97 57
10 06/18/2017 11:06:44 -72.91,-174.92 130.38 06/18/2017 11:05:50 -72.91,-175.00 130.35 2.49 54
11 06/18/2017 11:57:24 72.91, -7.59 49.63 06/18/2017 11:56:36 72.90, -7.66 49.64 2.50 48
12 06/18/2017 12:48:06 -72.88, 159.69 130.40 06/18/2017 12:47:19 -72.87, 159.72 130.40 2.08 47
13 06/18/2017 13:38:46 72.88, -32.98 49.61 06/18/2017 13:38:06 72.90, -33.05 49.64 3.34 40
14 06/18/2017 14:29:28 -72.86, 134.30 130.42 06/18/2017 14:28:49 -72.87, 134.34 130.40 1.91 39
15 06/18/2017 15:20:08 72.86, -58.37 49.59 06/18/2017 15:19:35 72.86, -58.33 49.59 1.27 33
16 06/18/2017 16:10:49 -72.89, 109.02 130.39 06/18/2017 16:10:19 -72.88, 108.95 130.39 2.38 30
17 06/18/2017 17:01:29 72.89, -83.65 49.61 06/18/2017 17:01:05 72.87, -83.71 49.60 3.26 24
18 06/18/2017 17:52:11 -72.86, 83.63 130.42 06/18/2017 17:51:49 -72.88, 83.57 130.39 2.99 22
19 06/18/2017 18:42:51 72.86,-109.04 49.59 06/18/2017 18:42:35 72.87,-109.10 49.60 2.19 16
20 06/18/2017 19:33:33 -72.84, 58.24 130.44 06/18/2017 19:33:18 -72.84, 58.29 130.44 1.49 15
21 06/18/2017 20:24:13 72.84,-134.43 49.57 06/18/2017 20:24:04 72.83,-134.38 49.55 2.26 9
22 06/18/2017 21:14:55 -72.82, 32.85 130.46 06/18/2017 21:14:48 -72.84, 32.90 130.43 3.25 7
23 06/18/2017 22:05:35 72.82,-159.81 49.55 06/18/2017 22:05:34 72.83,-159.77 49.56 2.18 1
24 06/18/2017 22:56:16 -72.85, 7.57 130.43 06/18/2017 22:56:18 -72.85, 7.51 130.43 1.92 2
25 06/18/2017 23:46:56 72.85, 174.90 49.57 06/18/2017 23:47:04 72.84, 174.85 49.56 2.06 8
26 06/19/2017 00:37:38 -72.82, -17.82 130.46 06/19/2017 00:37:47 -72.80, -17.77 130.48 2.63 9
27 06/19/2017 01:28:18 72.82, 149.52 49.55 06/19/2017 01:28:34 72.84, 149.46 49.57 2.87 16
28 06/19/2017 02:19:00 -72.80, -43.20 130.48 06/19/2017 02:19:17 -72.81, -43.15 130.47 2.06 17
29 06/19/2017 03:09:40 72.80, 124.13 49.53 06/19/2017 03:10:03 72.80, 124.18 49.52 1.79 23
30 06/19/2017 04:00:21 -72.83, -68.49 130.45 06/19/2017 04:00:47 -72.82, -68.54 130.47 2.14 26
31 06/19/2017 04:51:01 72.83, 98.85 49.55 06/19/2017 04:51:33 72.80, 98.80 49.52 3.08 32
32 06/19/2017 05:41:43 -72.80, -93.87 130.47 06/19/2017 05:42:17 -72.82, -93.92 130.46 2.44 34
33 06/19/2017 06:32:23 72.80, 73.46 49.53 06/19/2017 06:33:03 72.81, 73.41 49.53 1.66 40
34 06/19/2017 07:23:05 -72.78,-119.26 130.50 06/19/2017 07:23:46 -72.78,-119.20 130.51 2.01 41
35 06/19/2017 08:13:45 72.78, 48.07 49.51 06/19/2017 08:14:32 72.76, 48.13 49.48 2.71 47
36 06/19/2017 09:04:27 -72.76,-144.65 130.52 06/19/2017 09:05:16 -72.78,-144.59 130.51 3.23 49
37 06/19/2017 09:55:07 72.76, 22.68 49.49 06/19/2017 09:56:02 72.77, 22.74 49.48 2.47 55
38 06/19/2017 10:45:48 -72.79,-169.93 130.49 06/19/2017 10:46:46 -72.79,-169.97 130.50 1.42 58
39 06/19/2017 11:36:28 72.78, -2.60 49.51 06/19/2017 11:37:32 72.77, -2.64 49.49 1.73 64
40 06/19/2017 12:27:09 -72.76, 164.68 130.51 06/19/2017 12:28:14 -72.74, 164.74 130.55 3.15 65
41 06/19/2017 13:17:49 72.76, -27.99 49.49 06/19/2017 13:19:01 72.78, -28.03 49.49 2.49 72
42 06/19/2017 14:08:31 -72.74, 139.29 130.53 06/19/2017 14:09:44 -72.75, 139.36 130.55 2.31 73
43 06/19/2017 14:59:15 72.53, -53.79 49.29 06/19/2017 15:00:27 72.58, -53.00 49.28 27.08 72
44 06/19/2017 15:49:58 -72.46, 113.39 130.78 06/19/2017 15:51:09 -72.50, 114.49 130.82 37.00 71
45 06/19/2017 16:40:43 72.20, -79.78 49.00 06/19/2017 16:41:51 72.28, -77.77 48.95 68.82 68
46 06/19/2017 17:31:25 -72.18, 87.51 131.02 06/19/2017 17:32:33 -72.20, 89.71 131.14 74.88 68




NCC Satellite Simultaneous Nadir Overpasses (SNOs) Prediction Service
